1485874800.11,43079,11.19,73224.0,-4.93,-26.49,-25.29,0,*52
1485874801.36,43080,11.13,73224.3,-4.89,-26.71,-25.23,0,*5E
1485874802.62,43081,11.19,73224.0,-4.89,-26.55,-25.23,0,*59
1485874803.85,43082,11.19,73224.0,-4.91,-26.61,-25.29,0,*5E
1485874805.07,43083,11.13,73224.0,-4.91,-26.49,-25.39,0,*54
1485874806.3,43084,11.19,73226.0,-4.93,-26.61,-25.23,0,*50
1485874807.53,43085,11.19,73224.3,-4.89,-26.45,-25.19,0,*55
1485874808.77,43086,11.19,73226.5,-4.89,-26.45,-25.23,0,*5F
1485874810.02,43087,11.19,73228.3,-4.89,-26.55,-25.19,0,*56
1485874811.26,43088,11.13,73226.3,-4.91,-26.61,-25.29,0,*54
1485874812.52,43089,11.19,73228.5,-4.93,-26.61,-25.29,0,*57
1485874813.72,43090,11.19,73224.0,-4.91,-26.61,-25.23,0,*57
1485874814.95,43091,11.13,73224.5,-4.89,-26.45,-25.19,0,*50
1485874816.19,43092,11.19,73224.0,-4.89,-26.45,-25.23,0,*5A
1485874817.42,43093,11.19,73226.8,-4.89,-26.45,-25.19,0,*52
1485874818.63,43094,11.19,73228.3,-4.87,-26.39,-25.23,0,*59
1485874819.86,43095,11.19,73224.8,-4.89,-26.45,-25.19,0,*54
1485874821.1,43096,11.19,73224.5,-4.89,-26.39,-25.19,0,*5C
1485874822.33,43097,11.13,73224.0,-4.89,-26.45,-25.23,0,*5F
1485874823.56,43098,11.13,73226.3,-4.89,-26.45,-25.23,0,*50
1485874824.77,43099,11.19,73224.5,-4.91,-26.49,-25.23,0,*54
1485874825.98,43100,11.19,73228.8,-4.87,-26.39,-25.19,0,*5C
1485874827.19,43101,11.19,73224.5,-4.91,-26.45,-25.23,0,*58
1485874828.45,43102,11.19,73230.5,-4.89,-26.33,-25.19,0,*5A
1485874829.66,43103,11.13,73224.5,-4.91,-26.45,-25.13,0,*59
1485874830.87,43104,11.19,73226.8,-4.91,-26.49,-25.13,0,*52
1485874832.08,43105,11.13,73226.3,-4.91,-26.49,-25.13,0,*53
1485874833.29,43106,11.19,73230.5,-4.91,-26.45,-25.23,0,*5F
1485874834.52,43107,11.19,73228.5,-4.89,-26.39,-25.23,0,*5C
1485874835.73,43108,11.19,73230.0,-4.91,-26.39,-25.23,0,*5A
1485874836.96,43109,11.19,73224.8,-4.89,-26.45,-25.19,0,*50
1485874838.17,43110,11.19,73228.8,-4.91,-26.45,-25.23,0,*58
1485874839.38,43111,11.13,73224.8,-4.91,-26.39,-25.23,0,*52
1485874840.64,43112,11.19,73224.5,-4.89,-26.33,-25.19,0,*5B
1485874841.85,43113,11.19,73228.0,-4.91,-26.45,-25.23,0,*5B
1485874843.06,43114,11.19,73228.0,-4.91,-26.39,-25.13,0,*54
1485874844.3,43115,11.13,73224.0,-4.93,-26.39,-25.09,0,*5C
1485874845.54,43116,11.19,73228.5,-4.91,-26.29,-25.09,0,*5C
1485874846.74,43117,11.13,73226.0,-4.91,-26.23,-25.13,0,*5C
1485874848.01,43118,11.13,73224.5,-4.93,-26.29,-25.09,0,*50
1485874849.27,43119,11.19,73226.3,-4.93,-26.29,-25.09,0,*51
1485874850.5,43120,11.19,73226.0,-4.91,-26.29,-25.13,0,*52
1485874851.77,43121,11.19,73228.3,-4.93,-26.29,-25.09,0,*5A
1485874853.03,43122,11.19,73228.3,-4.93,-26.29,-25.09,0,*59
1485874854.27,43123,11.13,73224.3,-4.91,-26.29,-25.13,0,*51
1485874855.5,43124,11.13,73226.3,-4.91,-26.29,-25.13,0,*56
1485874856.71,43125,11.13,73224.5,-4.91,-26.39,-25.13,0,*56
1485874857.92,43126,11.19,73230.5,-4.91,-26.39,-25.13,0,*55
1485874859.13,43127,11.19,73230.3,-4.91,-26.45,-25.23,0,*5C
1485874860.37,43128,11.13,73226.5,-4.93,-26.39,-25.13,0,*59
1485874861.6,43129,11.19,73228.3,-4.91,-26.29,-25.13,0,*5B
1485874862.81,43130,11.19,73226.8,-4.91,-26.23,-25.09,0,*52
1485874864.04,43131,11.13,73228.0,-4.93,-26.23,-25.13,0,*5A
1485874865.27,43132,11.19,73230.8,-4.91,-26.29,-25.09,0,*5A
1485874866.51,43133,11.19,73230.8,-4.91,-26.29,-25.13,0,*50
1485874867.72,43134,11.19,73228.0,-4.91,-26.23,-25.09,0,*56
1485874868.95,43135,11.13,73226.5,-4.91,-26.29,-25.09,0,*5D
1485874870.19,43136,11.19,73230.0,-4.91,-26.29,-25.13,0,*55
1485874871.42,43137,11.13,73228.5,-4.91,-26.29,-25.13,0,*54
1485874872.63,43138,11.19,73228.8,-4.91,-26.23,-25.09,0,*5A
1485874873.86,43139,11.13,73228.0,-4.93,-26.23,-25.13,0,*52
1485874875.07,43140,11.19,73228.3,-4.91,-26.23,-25.09,0,*55
1485874876.27,43141,11.13,73226.3,-4.91,-26.23,-25.09,0,*54
1485874877.51,43142,11.19,73230.0,-4.91,-26.13,-25.13,0,*5F
1485874878.74,43143,11.19,73228.8,-4.91,-26.13,-25.13,0,*5E
1485874880.0,43144,11.13,73228.0,-4.93,-26.13,-25.13,0,*5B
1485874881.23,43145,11.19,73230.8,-4.93,-26.23,-25.13,0,*59
1485874882.44,43146,11.19,73232.8,-4.91,-26.23,-25.09,0,*53
1485874883.64,43147,11.13,73230.0,-4.91,-26.23,-25.13,0,*59
1485874884.85,43148,11.19,73228.8,-4.91,-26.23,-25.13,0,*56
1485874886.08,43149,11.13,73226.5,-4.93,-26.23,-25.09,0,*5E
1485874887.34,43150,11.13,73228.8,-4.93,-26.13,-25.13,0,*5E
1485874888.57,43151,11.19,73228.0,-4.91,-26.13,-25.13,0,*5D
1485874889.79,43152,11.13,73228.0,-4.91,-26.07,-25.09,0,*50
1485874891.05,43153,11.19,73232.0,-4.93,-25.97,-25.09,0,*59
1485874892.29,43154,11.13,73228.8,-4.93,-26.07,-25.09,0,*54
1485874893.53,43155,11.13,73230.0,-4.93,-26.07,-25.09,0,*55
1485874894.74,43156,11.19,73228.0,-4.91,-26.07,-25.13,0,*5F
1485874895.98,43157,11.13,73228.8,-4.93,-26.07,-25.09,0,*57
1485874897.21,43158,11.13,73230.3,-4.93,-26.07,-24.97,0,*5E
1485874898.45,43159,11.19,73228.3,-4.91,-25.97,-24.97,0,*57
1485874899.71,43160,11.19,73232.3,-4.93,-25.97,-25.09,0,*59
1485874900.91,43161,11.19,73230.5,-4.91,-25.91,-24.93,0,*5E
1485874902.12,43162,11.19,73228.3,-4.91,-25.91,-24.93,0,*5D
1485874903.32,43163,11.13,73230.8,-4.91,-25.91,-24.93,0,*5C
1485874904.52,43164,11.13,73228.8,-4.91,-25.91,-24.97,0,*5F
1485874905.78,43165,11.13,73228.5,-4.93,-25.97,-24.97,0,*5A
1485874907.01,43166,11.19,73230.5,-4.91,-25.81,-24.93,0,*58
1485874908.24,43167,11.19,73230.0,-4.93,-25.91,-24.93,0,*5A
1485874909.44,43168,11.19,73230.8,-4.91,-25.91,-24.93,0,*57
1485874910.71,43169,11.13,73228.8,-4.93,-25.97,-25.09,0,*50
1485874911.98,43170,11.13,73230.3,-4.93,-25.97,-25.09,0,*58
1485874913.18,43171,11.19,73234.3,-4.91,-25.91,-24.97,0,*5B
1485874914.41,43172,11.19,73230.8,-4.93,-25.91,-25.09,0,*5C
1485874915.62,43173,11.19,73234.0,-4.91,-25.91,-25.09,0,*5F
1485874916.83,43174,11.13,73230.3,-4.91,-25.91,-24.97,0,*5E
1485874918.09,43175,11.19,73228.0,-4.93,-25.97,-24.97,0,*5B
1485874919.34,43176,11.13,73228.5,-4.91,-25.81,-24.83,0,*58
1485874920.58,43177,11.13,73230.3,-4.91,-25.81,-25.09,0,*5A
1485874921.81,43178,11.19,73228.8,-4.91,-25.81,-24.97,0,*53
1485874923.01,43179,11.19,73230.8,-4.91,-25.91,-24.97,0,*53
1485874924.22,43180,11.19,73234.8,-4.91,-25.91,-25.09,0,*53
1485874925.43,43181,11.13,73230.5,-4.91,-25.91,-25.13,0,*59
1485874926.63,43182,11.19,73230.0,-4.91,-25.91,-24.97,0,*57
1485874927.84,43183,11.19,73232.0,-4.91,-25.91,-25.09,0,*50
1485874929.07,43184,11.13,73228.8,-4.93,-25.91,-25.13,0,*5E
1485874930.33,43185,11.13,73228.8,-4.93,-25.81,-25.09,0,*55
1485874931.59,43186,11.13,73228.8,-4.93,-25.81,-24.97,0,*50
1485874932.82,43187,11.13,73230.5,-4.91,-25.81,-24.97,0,*53
1485874934.05,43188,11.13,73230.8,-4.91,-25.81,-25.09,0,*5A
1485874935.31,43189,11.13,73230.5,-4.93,-25.75,-24.97,0,*54
1485874936.57,43190,11.19,73234.5,-4.93,-25.81,-25.09,0,*51
1485874937.81,43191,11.13,73230.0,-4.91,-25.75,-25.09,0,*59
1485874939.04,43192,11.13,73228.0,-4.91,-25.81,-24.97,0,*57
1485874940.27,43193,11.19,73232.8,-4.91,-25.75,-24.97,0,*5D
1485874941.54,43194,11.13,73228.8,-4.93,-25.75,-25.13,0,*55
1485874942.77,43195,11.19,73232.8,-4.91,-25.81,-24.97,0,*50
1485874944.0,43196,11.19,73234.5,-4.95,-25.81,-25.13,0,*5A
1485874945.23,43197,11.13,73228.5,-4.91,-25.75,-24.97,0,*59
1485874946.46,43198,11.19,73232.5,-4.91,-25.75,-24.97,0,*56
1485874947.72,43199,11.13,73230.0,-4.93,-25.75,-24.97,0,*55
1485874948.92,43200,11.13,73230.8,-4.91,-25.65,-24.93,0,*51
1485874950.15,43201,11.13,73230.5,-4.91,-25.65,-24.83,0,*51
1485874951.39,43202,11.19,73234.5,-4.93,-25.61,-24.93,0,*55
1485874952.62,43203,11.19,73232.0,-4.93,-25.61,-24.93,0,*54
1485874953.82,43204,11.13,73234.0,-4.91,-25.61,-24.93,0,*51
1485874955.05,43205,11.19,73232.8,-4.93,-25.61,-24.93,0,*52
1485874956.26,43206,11.19,73236.0,-4.91,-25.61,-24.93,0,*53
1485874957.46,43207,11.13,73228.3,-4.91,-25.65,-24.93,0,*56
1485874958.69,43208,11.13,73230.3,-4.93,-25.61,-24.93,0,*5F
1485874959.9,43209,11.13,73232.0,-4.91,-25.61,-24.93,0,*5C
1485874961.1,43210,11.13,73232.0,-4.91,-25.65,-24.97,0,*54
1485874962.31,43211,11.19,73238.0,-4.91,-25.65,-24.93,0,*51
1485874963.52,43212,11.19,73234.5,-4.91,-25.65,-25.09,0,*50
1485874964.72,43213,11.13,73232.0,-4.91,-25.61,-24.97,0,*53
1485874965.96,43214,11.13,73230.8,-4.93,-25.65,-25.09,0,*54
1485874967.19,43215,11.13,73232.0,-4.93,-25.61,-24.97,0,*57
1485874968.4,43216,11.19,73234.8,-4.91,-25.65,-24.97,0,*52
1485874969.6,43217,11.19,73232.5,-4.91,-25.61,-24.97,0,*57
1485874970.82,43218,11.13,73234.8,-4.91,-25.61,-25.09,0,*5E
1485874972.05,43219,11.13,73234.8,-4.93,-25.61,-24.97,0,*5B
1485874973.26,43220,11.13,73234.3,-4.91,-25.65,-25.09,0,*51
1485874974.48,43221,11.13,73232.8,-4.91,-25.45,-24.93,0,*50
1485874975.71,43222,11.19,73232.5,-4.91,-25.45,-24.93,0,*53
1485874976.94,43223,11.13,73232.0,-4.93,-25.49,-24.97,0,*58
1485874978.15,43224,11.13,73232.5,-4.91,-25.49,-24.97,0,*5D
1485874979.36,43225,11.13,73230.0,-4.91,-25.49,-24.93,0,*58
1485874980.56,43226,11.13,73234.5,-4.91,-25.39,-24.97,0,*58
1485874981.79,43227,11.13,73232.8,-4.91,-25.45,-24.93,0,*56
1485874982.99,43228,11.13,73232.5,-4.91,-25.49,-24.97,0,*51
1485874984.2,43229,11.19,73234.5,-4.91,-25.49,-24.93,0,*54
1485874985.43,43230,11.19,73236.8,-4.91,-25.45,-24.97,0,*54
1485874986.66,43231,11.13,73234.3,-4.91,-25.39,-24.83,0,*5B
1485874987.88,43232,11.19,73236.3,-4.91,-25.29,-24.97,0,*5C
1485874989.09,43233,11.13,73232.8,-4.91,-25.39,-24.97,0,*5C
1485874990.31,43234,11.13,73232.0,-4.91,-25.35,-24.87,0,*56
1485874991.52,43235,11.13,73234.5,-4.91,-25.39,-24.97,0,*5A
1485874992.75,43236,11.13,73234.5,-4.89,-25.35,-24.93,0,*58
1485874994.0,43237,11.13,73232.0,-4.89,-25.23,-24.87,0,*5B
1485874995.21,43238,11.13,73232.3,-4.91,-25.39,-24.97,0,*57
1485874996.43,43239,11.19,73234.0,-4.89,-25.35,-24.93,0,*57
1485874997.67,43240,11.19,73238.0,-4.89,-25.39,-24.93,0,*55
1485874998.92,43241,11.13,73232.5,-4.89,-25.23,-24.87,0,*5A
1485875000.15,43242,11.13,73234.3,-4.89,-25.35,-24.93,0,*5B
1485875001.38,43243,11.13,73232.0,-4.89,-25.23,-24.93,0,*5D
1485875002.63,43244,11.19,73236.3,-4.89,-25.19,-24.87,0,*56
1485875003.89,43245,11.13,73232.0,-4.89,-25.09,-24.87,0,*56
1485875005.12,43246,11.13,73232.0,-4.89,-25.09,-24.77,0,*5A
1485875006.35,43247,11.13,73232.3,-4.89,-25.09,-24.77,0,*5B
1485875007.58,43248,11.13,73234.3,-4.87,-25.09,-24.71,0,*5C
1485875008.79,43249,11.13,73236.5,-4.87,-25.09,-24.77,0,*5B
1485875010.04,43250,11.13,73232.8,-4.85,-24.97,-24.67,0,*56
1485875011.27,43251,11.13,73234.0,-4.87,-25.03,-24.77,0,*58
1485875012.5,43252,11.13,73232.8,-4.89,-25.09,-24.77,0,*5F
1485875013.7,43253,11.13,73234.0,-4.87,-25.19,-24.93,0,*5B
1485875014.93,43254,11.13,73230.0,-4.87,-25.35,-25.03,0,*5A
1485875016.16,43255,11.13,73238.0,-4.87,-25.23,-25.03,0,*5C
1485875017.39,43256,11.13,73232.3,-4.87,-25.19,-24.87,0,*5B
1485875018.61,43257,11.13,73232.3,-4.87,-25.19,-24.87,0,*5A
1485875019.84,43258,11.13,73232.8,-4.87,-25.23,-25.03,0,*51
1485875021.07,43259,11.13,73236.8,-4.87,-25.19,-25.03,0,*59
1485875022.3,43260,11.13,73234.8,-4.87,-25.09,-25.03,0,*52
1485875023.5,43261,11.13,73234.0,-4.87,-25.19,-24.93,0,*5A
1485875024.7,43262,11.19,73238.5,-4.87,-25.09,-24.93,0,*58
1485875025.9,43263,11.13,73234.0,-4.87,-25.09,-24.93,0,*59
1485875027.1,43264,11.19,73238.3,-4.87,-25.09,-24.93,0,*5E
1485875028.33,43265,11.19,73238.5,-4.85,-24.97,-24.97,0,*5F
1485875029.59,43266,11.13,73234.3,-4.85,-25.03,-24.97,0,*50
1485875030.85,43267,11.13,73236.3,-4.85,-25.03,-24.97,0,*51
1485875032.08,43268,11.13,73234.8,-4.83,-24.97,-25.03,0,*58
1485875033.33,43269,11.13,73234.8,-4.85,-25.03,-24.97,0,*5F
1485875034.59,43270,11.13,73236.3,-4.85,-25.03,-24.97,0,*57
1485875035.85,43271,11.13,73234.8,-4.85,-25.13,-25.03,0,*5B
1485875037.11,43272,11.13,73236.3,-4.83,-25.03,-25.03,0,*5F
1485875038.36,43273,11.13,73234.8,-4.83,-25.03,-25.03,0,*5E
1485875039.62,43274,11.13,73234.8,-4.83,-25.03,-25.03,0,*59
1485875040.88,43275,11.13,73236.5,-4.83,-25.03,-25.03,0,*58
1485875042.11,43276,11.13,73234.0,-4.83,-25.03,-24.97,0,*57
1485875043.36,43277,11.13,73238.0,-4.85,-24.97,-25.03,0,*50
1485875044.59,43278,11.19,73236.8,-4.83,-24.87,-24.97,0,*54
1485875045.82,43279,11.13,73236.5,-4.83,-24.97,-25.03,0,*58
1485875047.05,43280,11.13,73232.5,-4.83,-24.97,-25.03,0,*5E
1485875048.31,43281,11.13,73236.0,-4.83,-24.87,-25.03,0,*5E
1485875049.59,43282,11.13,73234.0,-4.85,-25.03,-25.03,0,*56
1485875050.85,43283,11.13,73232.3,-4.83,-24.87,-25.03,0,*5C
1485875052.1,43284,11.13,73234.5,-4.83,-25.03,-25.03,0,*56
1485875053.36,43285,11.13,73232.8,-4.83,-24.87,-25.03,0,*5A
1485875054.59,43286,11.13,73234.3,-4.83,-24.97,-25.03,0,*58
1485875055.85,43287,11.13,73234.5,-4.81,-24.83,-24.97,0,*52
1485875057.07,43288,11.13,73232.0,-4.81,-24.93,-25.09,0,*5A
1485875058.29,43289,11.13,73234.3,-4.81,-24.93,-24.93,0,*59
1485875059.51,43290,11.13,73232.8,-4.81,-24.93,-24.97,0,*55
1485875060.77,43291,11.13,73236.8,-4.81,-24.67,-24.93,0,*5B
1485875062.02,43292,11.13,73236.5,-4.81,-24.67,-24.93,0,*58
1485875063.28,43293,11.13,73234.3,-4.81,-24.67,-24.97,0,*5D
1485875064.53,43294,11.19,73236.5,-4.81,-24.67,-24.97,0,*5A
1485875065.79,43295,11.13,73236.5,-4.81,-24.67,-24.97,0,*5B
1485875067.04,43296,11.13,73238.3,-4.81,-24.67,-24.93,0,*5C
1485875068.27,43297,11.19,73238.8,-4.79,-24.67,-24.97,0,*5E
1485875069.5,43298,11.13,73238.0,-4.79,-24.67,-24.97,0,*51
1485875070.7,43299,11.19,73238.0,-4.79,-24.77,-24.97,0,*51
1485875071.94,43300,11.13,73232.5,-4.79,-24.83,-25.13,0,*56
1485875073.2,43301,11.13,73238.3,-4.81,-24.83,-25.09,0,*5B
1485875074.44,43302,11.13,73232.8,-4.79,-24.83,-25.13,0,*54
1485875075.67,43303,11.13,73234.3,-4.79,-24.83,-25.09,0,*5E
1485875076.87,43304,11.13,73232.5,-4.79,-24.93,-25.13,0,*53
1485875078.13,43305,11.19,73238.5,-4.77,-24.61,-25.03,0,*50
1485875079.36,43306,11.19,73236.3,-4.77,-24.57,-24.93,0,*5E
1485875080.62,43307,11.13,73236.5,-4.77,-24.61,-25.03,0,*52
1485875081.88,43308,11.13,73232.8,-4.73,-24.57,-25.03,0,*5C
1485875083.14,43309,11.13,73232.5,-4.73,-24.57,-25.03,0,*5D
1485875084.41,43310,11.13,73234.0,-4.77,-24.71,-25.09,0,*5F
1485875085.65,43311,11.13,73238.0,-4.77,-24.61,-25.09,0,*5F
1485875086.91,43312,11.13,73234.8,-4.73,-24.57,-25.03,0,*57
1485875088.14,43313,11.19,73236.0,-4.73,-24.57,-24.97,0,*5A
1485875089.38,43314,11.13,73238.0,-4.77,-24.61,-25.09,0,*5A
1485875090.61,43315,11.13,73232.8,-4.77,-24.57,-25.19,0,*5F
1485875091.85,43316,11.13,73232.3,-4.73,-24.51,-24.97,0,*59
1485875093.09,43317,11.13,73232.8,-4.77,-24.57,-25.09,0,*5C
1485875094.32,43318,11.19,73238.0,-4.77,-24.57,-25.19,0,*52
1485875095.56,43319,11.13,73236.3,-4.77,-24.61,-25.19,0,*56
1485875096.79,43320,11.13,73234.0,-4.77,-24.61,-25.19,0,*5C
1485875098.03,43321,11.13,73236.0,-4.73,-24.57,-25.13,0,*56
1485875099.26,43322,11.13,73236.5,-4.73,-24.57,-25.13,0,*55
1485875100.5,43323,11.13,73234.3,-4.69,-24.51,-25.09,0,*52
1485875101.7,43324,11.13,73234.5,-4.71,-24.57,-25.23,0,*52
1485875102.9,43325,11.19,73236.0,-4.71,-24.57,-25.23,0,*53
1485875104.13,43326,11.13,73234.0,-4.71,-24.67,-25.23,0,*53
1485875105.33,43327,11.13,73234.3,-4.71,-24.57,-25.23,0,*51
1485875106.55,43328,11.13,73232.5,-4.71,-24.67,-25.23,0,*5D
1485875107.76,43329,11.13,73238.0,-4.71,-24.57,-25.19,0,*56
1485875108.96,43330,11.13,73234.5,-4.71,-24.57,-25.19,0,*5E
1485875110.16,43331,11.13,73236.8,-4.71,-24.57,-25.35,0,*51
1485875111.39,43332,11.13,73232.8,-4.71,-24.67,-25.35,0,*51
1485875112.61,43333,11.13,73234.8,-4.71,-24.61,-25.29,0,*5B
1485875113.84,43334,11.19,73238.0,-4.69,-24.61,-25.35,0,*58
1485875115.1,43335,11.13,73236.0,-4.69,-24.51,-25.29,0,*57
1485875116.3,43336,11.13,73236.5,-4.71,-24.57,-25.35,0,*56
1485875117.57,43337,11.13,73234.3,-4.69,-24.51,-25.29,0,*55
1485875118.83,43338,11.13,73232.5,-4.69,-24.51,-25.29,0,*5A
1485875120.06,43339,11.13,73232.0,-4.69,-24.51,-25.35,0,*56
1485875121.3,43340,11.19,73238.3,-4.67,-24.51,-25.35,0,*56
1485875122.54,43341,11.13,73236.5,-4.67,-24.51,-25.35,0,*57
1485875123.77,43342,11.13,73234.0,-4.69,-24.51,-25.35,0,*5A
1485875125.04,43343,11.13,73238.8,-4.67,-24.51,-25.45,0,*52
1485875126.3,43344,11.19,73236.8,-4.67,-24.51,-25.45,0,*55
1485875127.54,43345,11.19,73236.3,-4.67,-24.51,-25.35,0,*53
1485875128.8,43346,11.13,73238.0,-4.67,-24.51,-25.45,0,*57
1485875130.04,43347,11.19,73236.3,-4.67,-24.51,-25.35,0,*51
1485875131.25,43348,11.13,73234.5,-4.65,-24.47,-25.39,0,*57
1485875132.52,43349,11.13,73236.0,-4.67,-24.51,-25.45,0,*58
1485875133.73,43350,11.13,73238.5,-4.65,-24.47,-25.39,0,*5E
1485875134.95,43351,11.13,73236.0,-4.65,-24.47,-25.39,0,*5F
1485875136.19,43352,11.13,73232.0,-4.65,-24.41,-25.39,0,*5A
1485875137.41,43353,11.13,73236.3,-4.65,-24.47,-25.39,0,*5D
1485875138.65,43354,11.13,73232.0,-4.65,-24.47,-25.55,0,*50
1485875139.87,43355,11.13,73232.8,-4.65,-24.47,-25.39,0,*5B
1485875141.13,43356,11.19,73236.0,-4.63,-24.41,-25.39,0,*58
1485875142.37,43357,11.13,73232.3,-4.65,-24.41,-25.39,0,*5F
1485875143.61,43358,11.13,73238.3,-4.67,-24.47,-25.61,0,*59
1485875144.85,43359,11.13,73236.0,-4.65,-24.57,-25.71,0,*5A
1485875146.07,43360,11.13,73238.8,-4.65,-24.47,-25.61,0,*50
1485875147.32,43361,11.13,73234.5,-4.65,-24.47,-25.55,0,*56
1485875148.53,43362,11.13,73234.3,-4.65,-24.57,-25.61,0,*53
1485875149.77,43363,11.13,73232.3,-4.63,-24.47,-25.61,0,*55
1485875151.02,43364,11.19,73238.3,-4.61,-24.41,-25.49,0,*5C
1485875152.26,43365,11.13,73232.8,-4.63,-24.47,-25.61,0,*53
1485875153.52,43366,11.19,73238.3,-4.63,-24.47,-25.71,0,*51
1485875154.76,43367,11.13,73234.0,-4.63,-24.47,-25.61,0,*51
1485875156.0,43368,11.13,73234.8,-4.61,-24.41,-25.65,0,*5E
1485875157.24,43369,11.13,73238.8,-4.61,-24.41,-25.65,0,*5F
1485875158.48,43370,11.13,73230.8,-4.61,-24.41,-25.65,0,*57
1485875159.73,43371,11.13,73232.5,-4.61,-24.51,-25.55,0,*54
1485875160.94,43372,11.19,73238.0,-4.61,-24.51,-25.65,0,*54
1485875162.18,43373,11.13,73234.8,-4.61,-24.51,-25.81,0,*5F
1485875163.42,43374,11.19,73238.0,-4.61,-24.57,-25.71,0,*51
1485875164.66,43375,11.13,73236.5,-4.61,-24.57,-25.71,0,*50
1485875165.86,43376,11.19,73236.0,-4.61,-24.57,-25.87,0,*5A
1485875167.11,43377,11.13,73234.5,-4.61,-24.51,-25.71,0,*54
1485875168.35,43378,11.13,73234.0,-4.61,-24.51,-25.71,0,*5B
1485875169.59,43379,11.13,73236.3,-4.61,-24.51,-25.81,0,*55
1485875170.85,43380,11.13,73232.8,-4.61,-24.41,-25.81,0,*52
1485875172.11,43381,11.13,73234.5,-4.61,-24.41,-25.81,0,*53
1485875173.39,43382,11.13,73234.3,-4.59,-24.41,-25.81,0,*5B
1485875174.68,43383,11.13,73234.8,-4.59,-24.41,-25.71,0,*55
1485875175.96,43384,11.13,73236.0,-4.59,-24.41,-25.81,0,*5D
1485875177.22,43385,11.19,73236.3,-4.61,-24.41,-25.81,0,*57
1485875178.51,43386,11.19,73238.5,-4.59,-24.41,-25.81,0,*5F
1485875179.79,43387,11.13,73234.0,-4.59,-24.41,-25.81,0,*5E
1485875181.07,43388,11.19,73238.5,-4.59,-24.41,-25.81,0,*51
1485875182.33,43389,11.13,73234.3,-4.59,-24.41,-25.87,0,*56
1485875183.61,43390,11.13,73238.8,-4.59,-24.41,-25.71,0,*57
1485875184.9,43391,11.19,73236.3,-4.59,-24.41,-25.71,0,*56
1485875186.14,43392,11.19,73236.5,-4.57,-24.35,-25.71,0,*58
1485875187.37,43393,11.13,73232.3,-4.57,-24.31,-25.81,0,*52
1485875188.6,43394,11.13,73234.3,-4.57,-24.35,-25.81,0,*51
1485875189.89,43395,11.13,73234.5,-4.59,-24.41,-25.81,0,*5D
1485875191.12,43396,11.13,73232.0,-4.57,-24.31,-25.81,0,*57
1485875192.33,43397,11.13,73234.3,-4.57,-24.47,-25.91,0,*56
1485875193.56,43398,11.19,73238.0,-4.57,-24.35,-25.97,0,*5A
1485875194.77,43399,11.13,73234.3,-4.57,-24.35,-25.91,0,*5D
1485875196.0,43400,11.13,73232.3,-4.57,-24.35,-25.97,0,*5C
1485875197.24,43401,11.13,73234.3,-4.57,-24.35,-25.97,0,*5D
1485875198.46,43402,11.13,73238.0,-4.57,-24.47,-26.03,0,*55
1485875199.67,43403,11.13,73232.5,-4.57,-24.47,-26.03,0,*54
1485875200.88,43404,11.13,73234.3,-4.57,-24.35,-26.03,0,*56
1485875202.1,43405,11.13,73232.5,-4.57,-24.47,-26.03,0,*52
1485875203.31,43406,11.13,73232.5,-4.57,-24.47,-26.03,0,*51
1485875204.53,43407,11.13,73234.0,-4.57,-24.35,-26.03,0,*55
1485875205.76,43408,11.13,73236.0,-4.57,-24.35,-26.13,0,*5B
1485875207.0,43409,11.13,73234.5,-4.57,-24.47,-26.13,0,*5F
1485875208.25,43410,11.13,73232.5,-4.55,-24.35,-26.13,0,*50
1485875209.51,43411,11.13,73234.0,-4.55,-24.35,-26.13,0,*51
1485875210.77,43412,11.13,73236.8,-4.51,-24.41,-26.07,0,*50
1485875212.03,43413,11.19,73238.0,-4.55,-24.47,-26.17,0,*52
1485875213.29,43414,11.13,73234.3,-4.55,-24.47,-26.17,0,*55
1485875214.54,43415,11.13,73234.8,-4.55,-24.51,-26.17,0,*53
1485875215.8,43416,11.19,73236.3,-4.55,-24.47,-26.13,0,*53
1485875217.06,43417,11.13,73236.3,-4.51,-24.41,-26.07,0,*55
1485875218.35,43418,11.13,73236.5,-4.51,-24.41,-26.13,0,*5F
1485875219.61,43419,11.13,73234.0,-4.55,-24.47,-26.33,0,*5E
1485875220.9,43420,11.13,73234.3,-4.51,-24.41,-26.29,0,*5D
1485875222.16,43421,11.19,73238.0,-4.55,-24.51,-26.33,0,*52
1485875223.42,43422,11.13,73236.0,-4.55,-24.35,-26.29,0,*58
1485875224.67,43423,11.13,73236.5,-4.51,-24.41,-26.23,0,*54
1485875225.93,43424,11.13,73236.0,-4.51,-24.57,-26.29,0,*5E
1485875227.19,43425,11.19,73238.3,-4.51,-24.41,-26.39,0,*59
1485875228.42,43426,11.13,73234.3,-4.55,-24.61,-26.45,0,*57
1485875229.66,43427,11.13,73234.0,-4.51,-24.47,-26.39,0,*5D
1485875230.92,43428,11.19,73238.3,-4.51,-24.41,-26.39,0,*54
1485875232.15,43429,11.19,73236.0,-4.55,-24.51,-26.49,0,*57
1485875233.39,43430,11.19,73236.3,-4.51,-24.47,-26.45,0,*50
1485875234.62,43431,11.19,73238.5,-4.51,-24.47,-26.45,0,*51
1485875235.86,43432,11.13,73236.0,-4.51,-24.47,-26.39,0,*59
1485875237.1,43433,11.13,73236.5,-4.51,-24.47,-26.39,0,*58
1485875238.33,43434,11.13,73236.3,-4.51,-24.57,-26.45,0,*55
1485875239.57,43435,11.19,73238.0,-4.51,-24.47,-26.39,0,*5E
1485875240.8,43436,11.13,73234.0,-4.51,-24.47,-26.45,0,*56
1485875242.03,43437,11.19,73236.0,-4.51,-24.57,-26.45,0,*56
1485875243.27,43438,11.13,73234.0,-4.51,-24.47,-26.45,0,*58
1485875244.53,43439,11.19,73236.0,-4.51,-24.47,-26.55,0,*58
1485875245.75,43440,11.13,73234.8,-4.49,-24.57,-26.55,0,*5E
1485875247.01,43441,11.13,73232.3,-4.51,-24.47,-26.55,0,*57
1485875248.26,43442,11.13,73232.8,-4.47,-24.51,-26.55,0,*54
1485875249.47,43443,11.13,73234.5,-4.49,-24.57,-26.61,0,*5A
1485875250.7,43444,11.13,73232.5,-4.49,-24.47,-26.55,0,*5B
1485875251.93,43445,11.13,73234.0,-4.49,-24.47,-26.55,0,*5A
1485875253.14,43446,11.13,73234.0,-4.49,-24.47,-26.61,0,*5E
1485875254.35,43447,11.19,73236.3,-4.49,-24.47,-26.61,0,*5F
1485875255.61,43448,11.13,73234.8,-4.49,-24.71,-26.71,0,*54
1485875256.87,43449,11.13,73234.3,-4.47,-24.51,-26.71,0,*59
1485875258.12,43450,11.19,73236.0,-4.47,-24.41,-26.65,0,*55
1485875259.35,43451,11.13,73234.0,-4.49,-24.57,-26.71,0,*58
1485875260.55,43452,11.19,73234.5,-4.49,-24.57,-26.61,0,*5A
1485875261.78,43453,11.19,73236.3,-4.49,-24.57,-26.71,0,*5A
1485875263.0,43454,11.13,73234.0,-4.49,-24.57,-26.71,0,*5D
1485875264.23,43455,11.13,73232.8,-4.49,-24.61,-26.77,0,*5F
1485875265.51,43456,11.19,73238.3,-4.47,-24.67,-26.81,0,*5D
1485875266.72,43457,11.19,73236.3,-4.49,-24.61,-26.87,0,*52
1485875267.96,43458,11.13,73236.0,-4.47,-24.57,-26.71,0,*5F
1485875269.19,43459,11.13,73234.0,-4.49,-24.57,-26.71,0,*50
1485875270.44,43460,11.13,73234.8,-4.47,-24.67,-26.87,0,*5E
1485875271.68,43461,11.13,73232.5,-4.49,-24.71,-26.87,0,*56
1485875272.93,43462,11.13,73234.5,-4.47,-24.57,-26.81,0,*59
1485875274.18,43463,11.13,73234.0,-4.47,-24.57,-26.71,0,*57
1485875275.42,43464,11.19,73236.3,-4.49,-24.71,-26.87,0,*53
1485875276.69,43465,11.19,73236.3,-4.47,-24.67,-26.81,0,*5D
1485875277.95,43466,11.13,73236.5,-4.47,-24.57,-26.81,0,*5D
1485875279.2,43467,11.19,73238.0,-4.45,-24.67,-26.81,0,*5D
1485875280.46,43468,11.19,73236.5,-4.47,-24.71,-26.87,0,*51
1485875281.72,43469,11.13,73232.0,-4.47,-24.83,-26.87,0,*5D
1485875282.97,43470,11.13,73236.3,-4.47,-24.67,-26.87,0,*5F
1485875284.19,43471,11.13,73232.0,-4.47,-24.57,-26.87,0,*5D
1485875285.44,43472,11.13,73236.0,-4.47,-24.57,-26.93,0,*5B
1485875286.71,43473,11.13,73234.0,-4.47,-24.71,-27.07,0,*52
1485875287.98,43474,11.13,73234.0,-4.47,-24.83,-26.93,0,*54
1485875289.24,43475,11.13,73236.3,-4.47,-24.71,-27.07,0,*54
1485875290.53,43476,11.19,73238.0,-4.47,-24.71,-26.93,0,*5B
1485875291.81,43477,11.19,73236.8,-4.47,-24.83,-27.19,0,*54
1485875293.06,43478,11.19,73236.0,-4.49,-24.87,-27.23,0,*58